Regional Weather Roundup
Issued by NWS Green Bay, WI

Home | Current Version | Previous Version | Graphics & Text | Print | Product List | Glossary Off
Versions: 1 2 3 4 5 6 7 8 9 10 11 12 13 14 15 16 17 18 19 20 21 22 23 24 25 26 27 28 29 30 31 32 33 34 35 36 37 38 39 40 41 42 43 44 45 46 47 48 49 50

000
ASUS43 KGRB 292359
RWRGRB

NORTH-CENTRAL AND NORTHEAST WISCONSIN REGIONAL WEATHER ROUNDUP
NATIONAL WEATHER SERVICE GREEN BAY WI
700 PM CDT TUE JUL 29 2014

WIZ005-009-010>012-018-019-300100-
NORTH CENTRAL WISCONSIN

CITY           SKY/WX    TMP DP  RH WIND       PRES   REMARKS
IRONWOOD       NOT AVBL
MANITOWISH WTR NOT AVBL
ARBOR VITAE    NOT AVBL
EAGLE RIVER    NOT AVBL
LAND O LAKES   NOT AVBL
RHINELANDER    PTSUNNY   63  57  81 W5        30.02R
PHILLIPS       RAIN      58  56  91 W6        30.04S
ANTIGO         NOT AVBL
TOMAHAWK       CLOUDY    60  56  85 NW7       30.04R
MERRILL        NOT AVBL
$$

WIZ013-073-300100-
NORTHEAST WISCONSIN

CITY           SKY/WX    TMP DP  RH WIND       PRES   REMARKS
IRON MOUNTAIN  CLOUDY    70  52  52 N8        29.96R
MARINETTE      PTSUNNY   64  59  82 SW3       29.93F
$$

WIZ017-030-035>037-045-300100-
CENTRAL WISCONSIN

CITY           SKY/WX    TMP DP  RH WIND       PRES   REMARKS
MEDFORD        NOT AVBL
WAUSAU         LGT RAIN  61  57  87 W8        30.00F
MOSINEE        NOT AVBL
MARSHFIELD     PTSUNNY   66  59  78 NW6       30.04S
WISC RAPIDS    PTSUNNY   65  59  81 W7        30.04R
STEVENS POINT  NOT AVBL
WAUPACA        CLOUDY    64  60  87 CALM      30.01S
SHAWANO        PTSUNNY   66  60  80 W6        29.99S
CLINTONVILLE   CLOUDY    61  57  88 SW3       30.00F
$$

WIZ038-039-048-051-300100-
FOX VALLEY

CITY           SKY/WX    TMP DP  RH WIND       PRES   REMARKS
NWS GREEN BAY  PTSUNNY   62  59  90 SW5       29.98F
APPLETON       TSTM      59  57  94 NW13G23   30.02R
OSHKOSH        TSTM      62  56  80 N12       30.04R
FOND DU LAC    HVY RAIN  62  56  80 NE17      30.03R
$$

WIZ022-050-052-300100-
EAST CENTRAL WISCONSIN

CITY           SKY/WX    TMP DP  RH WIND       PRES   REMARKS
STURGEON BAY   PTSUNNY   66  57  72 SW8       29.96F
MANITOWOC      NOT AVBL
SHEBOYGAN      RAIN      61  56  83 N12       30.02R
$$

LMZ563-521-522-541>543-300100-
LAKESHORE

STATION/POSITION TIME  TEMP    WIND        PRES    VSBY  WAVE
                       AIR SEA DIR/SP/G                  HT/PER
                 (UTC) (F)     (DEG/KT/KT) (MB)    (MI)  (FT/S)
SHEBOYGAN LKSHOR 2300   61     200/  3/  3 1015.7R
KEWAUNEE LKSHORE 2300   65     250/  5/  8 1015.6F
ALGOMA MARINA    2300          220/  7/  8   N/A
NORTHPORT PIER   2300   65     200/  1/  6 1014.2S
N MID LAKE BUOY  2300   58 57  200/  4/  6 1013.9S         0
S GREEN BAY BUOY 2300   66 67  260/ 14     1015.5R
CHAMBERS ISLAND  2300   66     100/  3/  7 1014.2S
MENOMINEE LKSHOR 2300   67     170/  7/  9 1014.5F
$$


USA.gov is the U.S. government's official web portal to all federal, state and local government web resources and services.